ROA3079 SAME-SABE

Flight info

Callsign ROA3079
Flight time 1h 23m
Altitude 29000
Route KAMUV2C KAMUV UT670 SNT SNT8Q
Aircraft B738/M-SDE2E3FGHIRWXY/LB1

Departure

Time 2026-04-25 21:24
Airport Governor Francisco Gabrielli International Airport (SAME)

Arrival

Time 2026-04-25 22:47
Airport Aeroparque Jorge Newbery (SABE)
Time Latitude Longitude Altitude Speed Heading
2026-04-25 20:49 -32.82764 -68.79778 2382 ft 0 kts 265°
2026-04-25 21:12 -32.82764 -68.79776 2383 ft 2 kts 265°
2026-04-25 21:13 -32.82762 -68.79741 2385 ft 2 kts 265°
2026-04-25 21:13 -32.82759 -68.79719 2385 ft 4 kts 241°
2026-04-25 21:13 -32.82747 -68.79707 2389 ft 2 kts 180°
2026-04-25 21:13 -32.82724 -68.79707 2387 ft 4 kts 180°
2026-04-25 21:14 -32.82713 -68.79707 2388 ft 0 kts 180°
2026-04-25 21:16 -32.82717 -68.79707 2388 ft 2 kts 180°
2026-04-25 21:17 -32.82739 -68.79707 2388 ft 4 kts 180°
2026-04-25 21:17 -32.82780 -68.79707 2385 ft 7 kts 181°
2026-04-25 21:17 -32.82839 -68.79709 2385 ft 10 kts 181°
2026-04-25 21:17 -32.82916 -68.79708 2385 ft 12 kts 165°
2026-04-25 21:18 -32.82941 -68.79616 2383 ft 13 kts 117°
2026-04-25 21:18 -32.83010 -68.79541 2383 ft 12 kts 140°
2026-04-25 21:18 -32.83087 -68.79514 2383 ft 9 kts 182°
2026-04-25 21:18 -32.83138 -68.79515 2383 ft 9 kts 181°
2026-04-25 21:19 -32.83208 -68.79516 2385 ft 11 kts 181°
2026-04-25 21:19 -32.83274 -68.79517 2385 ft 8 kts 181°
2026-04-25 21:19 -32.83339 -68.79519 2385 ft 11 kts 181°
2026-04-25 21:19 -32.83421 -68.79520 2385 ft 13 kts 181°
2026-04-25 21:20 -32.83518 -68.79522 2385 ft 15 kts 181°
2026-04-25 21:20 -32.83592 -68.79524 2385 ft 17 kts 181°
2026-04-25 21:20 -32.83736 -68.79527 2385 ft 17 kts 181°
2026-04-25 21:20 -32.83857 -68.79529 2385 ft 18 kts 181°
2026-04-25 21:21 -32.83972 -68.79531 2383 ft 12 kts 181°
2026-04-25 21:21 -32.84056 -68.79507 2383 ft 13 kts 154°
2026-04-25 21:21 -32.84150 -68.79467 2383 ft 15 kts 161°
2026-04-25 21:21 -32.84200 -68.79446 2384 ft 1 kts 161°
2026-04-25 21:22 -32.84217 -68.79439 2384 ft 4 kts 161°
2026-04-25 21:22 -32.84249 -68.79426 2384 ft 6 kts 158°
2026-04-25 21:22 -32.84283 -68.79394 2385 ft 7 kts 141°
2026-04-25 21:22 -32.84317 -68.79355 2385 ft 8 kts 95°
2026-04-25 21:23 -32.84280 -68.79314 2385 ft 5 kts
2026-04-25 21:23 -32.84271 -68.79313 2388 ft 1 kts
2026-04-25 21:23 -32.84247 -68.79313 2385 ft 13 kts
2026-04-25 21:23 -32.83867 -68.79305 2383 ft 96 kts
2026-04-25 21:24 -32.82956 -68.79289 2396 ft 162 kts
2026-04-25 21:24 -32.81810 -68.79285 3204 ft 164 kts
2026-04-25 21:24 -32.80624 -68.79275 3879 ft 182 kts
2026-04-25 21:24 -32.79239 -68.79248 4194 ft 215 kts
2026-04-25 21:25 -32.77647 -68.79215 4455 ft 240 kts
2026-04-25 21:25 -32.76025 -68.78617 4988 ft 252 kts 37°
2026-04-25 21:25 -32.74913 -68.76989 5761 ft 261 kts 66°
2026-04-25 21:25 -32.74444 -68.74882 6630 ft 268 kts 79°
2026-04-25 21:26 -32.74176 -68.72671 7453 ft 272 kts 81°
2026-04-25 21:26 -32.73918 -68.70430 8301 ft 276 kts 81°
2026-04-25 21:26 -32.73634 -68.68152 9154 ft 281 kts 80°
2026-04-25 21:26 -32.73331 -68.65847 10015 ft 285 kts 81°
2026-04-25 21:27 -32.73021 -68.63496 10741 ft 291 kts 83°
2026-04-25 21:27 -32.73128 -68.61063 11295 ft 306 kts 102°
2026-04-25 21:27 -32.73638 -68.58493 11492 ft 332 kts 104°
2026-04-25 21:27 -32.74220 -68.55774 12000 ft 346 kts 104°
2026-04-25 21:28 -32.74816 -68.52971 12699 ft 353 kts 104°
2026-04-25 21:28 -32.75400 -68.50151 13463 ft 359 kts 105°
2026-04-25 21:28 -32.75992 -68.47237 14212 ft 365 kts 105°
2026-04-25 21:28 -32.76582 -68.44285 14997 ft 369 kts 105°
2026-04-25 21:29 -32.77172 -68.41311 15795 ft 373 kts 106°
2026-04-25 21:29 -32.77769 -68.38285 16586 ft 377 kts 107°
2026-04-25 21:29 -32.78372 -68.35231 17354 ft 382 kts 107°
2026-04-25 21:29 -32.78982 -68.32134 18125 ft 387 kts 107°
2026-04-25 21:30 -32.79600 -68.28999 18807 ft 393 kts 108°
2026-04-25 21:30 -32.80229 -68.25810 19430 ft 399 kts 108°
2026-04-25 21:30 -32.80864 -68.22584 20067 ft 404 kts 108°
2026-04-25 21:30 -32.81289 -68.20418 20479 ft 408 kts 108°
2026-04-25 21:31 -32.82159 -68.15980 21285 ft 416 kts 107°
2026-04-25 21:31 -32.82817 -68.12616 21880 ft 421 kts 107°
2026-04-25 21:31 -32.83484 -68.09198 22487 ft 427 kts 107°
2026-04-25 21:31 -32.84160 -68.05729 23071 ft 432 kts 107°
2026-04-25 21:32 -32.84840 -68.02232 23643 ft 437 kts 107°
2026-04-25 21:32 -32.85529 -67.98689 24098 ft 442 kts 107°
2026-04-25 21:32 -32.86225 -67.95099 24536 ft 448 kts 107°
2026-04-25 21:32 -32.86930 -67.91461 24991 ft 453 kts 107°
2026-04-25 21:33 -32.87630 -67.87837 25442 ft 458 kts 107°
2026-04-25 21:33 -32.88343 -67.84135 25970 ft 460 kts 107°
2026-04-25 21:33 -32.89059 -67.80412 26536 ft 462 kts 107°
2026-04-25 21:33 -32.89776 -67.76681 27111 ft 463 kts 107°
2026-04-25 21:34 -32.90497 -67.72931 27641 ft 466 kts 107°
2026-04-25 21:34 -32.91221 -67.69162 28168 ft 468 kts 107°
2026-04-25 21:34 -32.91955 -67.65388 28725 ft 469 kts 108°
2026-04-25 21:34 -32.92694 -67.61608 29036 ft 470 kts 108°
2026-04-25 21:35 -32.94171 -67.54059 29008 ft 465 kts 107°
2026-04-25 21:35 -32.95634 -67.46546 29019 ft 467 kts 107°
2026-04-25 21:36 -32.97102 -67.38981 29010 ft 469 kts 107°
2026-04-25 21:36 -32.98564 -67.31406 29005 ft 470 kts 107°
2026-04-25 21:37 -32.99774 -67.25113 29001 ft 469 kts 107°
2026-04-25 21:37 -33.01471 -67.16259 28995 ft 468 kts 107°
2026-04-25 21:38 -33.02916 -67.08698 29006 ft 468 kts 107°
2026-04-25 21:38 -33.04349 -67.01174 29006 ft 468 kts 107°
2026-04-25 21:39 -33.05782 -66.93616 29002 ft 467 kts 107°
2026-04-25 21:39 -33.07206 -66.86082 28997 ft 464 kts 107°
2026-04-25 21:40 -33.08618 -66.78593 29004 ft 462 kts 107°
2026-04-25 21:40 -33.10030 -66.71099 29011 ft 462 kts 107°
2026-04-25 21:41 -33.11427 -66.63660 29011 ft 463 kts 107°
2026-04-25 21:41 -33.12832 -66.56156 29031 ft 464 kts 107°
2026-04-25 21:42 -33.14241 -66.48594 29048 ft 467 kts 107°
2026-04-25 21:42 -33.15646 -66.41024 29050 ft 469 kts 107°
2026-04-25 21:43 -33.17058 -66.33393 29071 ft 469 kts 107°
2026-04-25 21:43 -33.18453 -66.25813 29057 ft 465 kts 107°
2026-04-25 21:44 -33.19828 -66.18343 29034 ft 462 kts 107°
2026-04-25 21:45 -33.21881 -66.07144 29033 ft 459 kts 107°
2026-04-25 21:45 -33.23246 -65.99697 29043 ft 459 kts 107°
2026-04-25 21:46 -33.24502 -65.92820 29034 ft 462 kts 107°
2026-04-25 21:46 -33.25873 -65.85285 29053 ft 465 kts 106°
2026-04-25 21:47 -33.27249 -65.77690 29040 ft 468 kts 106°
2026-04-25 21:47 -33.28621 -65.70081 29070 ft 465 kts 106°
2026-04-25 21:48 -33.29955 -65.62635 29043 ft 459 kts 106°
2026-04-25 21:48 -33.31310 -65.55088 29047 ft 463 kts 106°
2026-04-25 21:49 -33.32652 -65.47575 29049 ft 466 kts 106°
2026-04-25 21:49 -33.33999 -65.39999 29044 ft 466 kts 106°
2026-04-25 21:50 -33.35341 -65.32417 29040 ft 465 kts 106°
2026-04-25 21:50 -33.36673 -65.24869 29038 ft 463 kts 106°
2026-04-25 21:51 -33.38000 -65.17323 29051 ft 463 kts 106°
2026-04-25 21:51 -33.39102 -65.11037 29055 ft 463 kts 105°
2026-04-25 21:52 -33.40419 -65.03489 29053 ft 462 kts 106°
2026-04-25 21:52 -33.41725 -64.95982 29023 ft 460 kts 105°
2026-04-25 21:53 -33.43017 -64.88528 29046 ft 459 kts 105°
2026-04-25 21:53 -33.44311 -64.81032 29044 ft 460 kts 105°
2026-04-25 21:54 -33.45605 -64.73507 29051 ft 461 kts 105°
2026-04-25 21:54 -33.46893 -64.65988 29048 ft 462 kts 105°
2026-04-25 21:55 -33.48181 -64.58443 29048 ft 462 kts 105°
2026-04-25 21:55 -33.49445 -64.50932 29046 ft 463 kts 105°
2026-04-25 21:56 -33.50665 -64.43359 29047 ft 463 kts 104°
2026-04-25 21:56 -33.51870 -64.35805 29035 ft 460 kts 104°
2026-04-25 21:57 -33.53068 -64.28293 29039 ft 458 kts 104°
2026-04-25 21:57 -33.54259 -64.20830 29041 ft 457 kts 104°
2026-04-25 21:58 -33.55429 -64.13469 29041 ft 458 kts 104°
2026-04-25 21:58 -33.56611 -64.06005 29039 ft 459 kts 104°
2026-04-25 21:59 -33.57799 -63.98470 29033 ft 461 kts 104°
2026-04-25 21:59 -33.58987 -63.90900 29035 ft 462 kts 104°
2026-04-25 22:00 -33.60762 -63.79532 29037 ft 463 kts 104°
2026-04-25 22:00 -33.61942 -63.71934 29019 ft 463 kts 103°
2026-04-25 22:01 -33.63118 -63.64333 29043 ft 463 kts 103°
2026-04-25 22:01 -33.64091 -63.58013 29020 ft 464 kts 103°
2026-04-25 22:02 -33.65456 -63.49114 29021 ft 464 kts 103°
2026-04-25 22:02 -33.66612 -63.41546 29005 ft 464 kts 103°
2026-04-25 22:03 -33.67770 -63.33934 29029 ft 464 kts 103°
2026-04-25 22:03 -33.68926 -63.26299 29014 ft 464 kts 103°
2026-04-25 22:04 -33.70077 -63.18661 29018 ft 464 kts 103°
2026-04-25 22:04 -33.71220 -63.11041 28997 ft 462 kts 103°
2026-04-25 22:05 -33.72353 -63.03462 29009 ft 461 kts 103°
2026-04-25 22:05 -33.73500 -62.95888 29013 ft 460 kts 103°
2026-04-25 22:06 -33.74662 -62.88364 29010 ft 461 kts 103°
2026-04-25 22:06 -33.75826 -62.80771 29007 ft 463 kts 103°
2026-04-25 22:07 -33.76789 -62.74446 29008 ft 464 kts 103°
2026-04-25 22:07 -33.78147 -62.65481 29006 ft 465 kts 103°
2026-04-25 22:08 -33.79262 -62.58090 29004 ft 465 kts 103°
2026-04-25 22:08 -33.80400 -62.50514 28984 ft 462 kts 102°
2026-04-25 22:09 -33.81538 -62.42898 28998 ft 461 kts 102°
2026-04-25 22:09 -33.82668 -62.35313 29010 ft 460 kts 102°
2026-04-25 22:10 -33.83786 -62.27768 29001 ft 461 kts 102°
2026-04-25 22:10 -33.84909 -62.20162 28992 ft 462 kts 102°
2026-04-25 22:11 -33.86029 -62.12537 28997 ft 463 kts 102°
2026-04-25 22:11 -33.87149 -62.04880 28996 ft 464 kts 102°
2026-04-25 22:12 -33.88265 -61.97215 28995 ft 465 kts 102°
2026-04-25 22:12 -33.89186 -61.90857 28979 ft 463 kts 102°
2026-04-25 22:13 -33.90473 -61.81944 28988 ft 461 kts 102°
2026-04-25 22:13 -33.91559 -61.74387 28992 ft 461 kts 102°
2026-04-25 22:14 -33.92649 -61.66773 28989 ft 461 kts 102°
2026-04-25 22:14 -33.93740 -61.59155 28991 ft 461 kts 102°
2026-04-25 22:15 -33.94827 -61.51524 28993 ft 462 kts 102°
2026-04-25 22:16 -33.96444 -61.40104 28990 ft 462 kts 101°
2026-04-25 22:16 -33.97511 -61.32481 28975 ft 460 kts 101°
2026-04-25 22:17 -33.98563 -61.24883 28978 ft 459 kts 101°
2026-04-25 22:17 -33.99611 -61.17287 28985 ft 458 kts 101°
2026-04-25 22:18 -34.00654 -61.09704 28983 ft 459 kts 101°
2026-04-25 22:18 -34.01688 -61.02147 28838 ft 451 kts 101°
2026-04-25 22:18 -34.02192 -60.98448 28547 ft 445 kts 101°
2026-04-25 22:19 -34.02691 -60.94777 28194 ft 441 kts 101°
2026-04-25 22:19 -34.03177 -60.91195 27856 ft 436 kts 101°
2026-04-25 22:19 -34.03663 -60.87601 27484 ft 432 kts 101°
2026-04-25 22:19 -34.04145 -60.84034 27178 ft 428 kts 101°
2026-04-25 22:20 -34.04620 -60.80510 26812 ft 424 kts 101°
2026-04-25 22:20 -34.05090 -60.77015 26452 ft 421 kts 101°
2026-04-25 22:20 -34.05556 -60.73547 26096 ft 417 kts 101°
2026-04-25 22:20 -34.06017 -60.70113 25750 ft 414 kts 101°
2026-04-25 22:21 -34.06473 -60.66700 25408 ft 410 kts 101°
2026-04-25 22:21 -34.06924 -60.63312 25074 ft 407 kts 101°
2026-04-25 22:21 -34.07372 -60.59947 24740 ft 404 kts 101°
2026-04-25 22:21 -34.07815 -60.56612 24401 ft 401 kts 101°
2026-04-25 22:22 -34.08254 -60.53301 24077 ft 398 kts 101°
2026-04-25 22:22 -34.08690 -60.50004 23744 ft 396 kts 101°
2026-04-25 22:22 -34.09120 -60.46740 23379 ft 393 kts 101°
2026-04-25 22:22 -34.09549 -60.43488 22968 ft 391 kts 99°
2026-04-25 22:23 -34.09971 -60.40280 22632 ft 391 kts 99°
2026-04-25 22:23 -34.10396 -60.37039 22289 ft 390 kts 99°
2026-04-25 22:23 -34.10817 -60.33815 21953 ft 389 kts 99°
2026-04-25 22:23 -34.11239 -60.30590 21625 ft 388 kts 99°
2026-04-25 22:24 -34.11656 -60.27385 21319 ft 384 kts 100°
2026-04-25 22:24 -34.12068 -60.24214 20986 ft 381 kts 100°
2026-04-25 22:24 -34.12477 -60.21066 20656 ft 378 kts 100°
2026-04-25 22:24 -34.12880 -60.17951 20330 ft 375 kts 100°
2026-04-25 22:25 -34.13275 -60.14895 19996 ft 372 kts 99°
2026-04-25 22:25 -34.13672 -60.11813 19683 ft 370 kts 99°
2026-04-25 22:25 -34.14065 -60.08758 19369 ft 368 kts 99°
2026-04-25 22:25 -34.14461 -60.05675 19043 ft 365 kts 99°
2026-04-25 22:26 -34.14849 -60.02647 18736 ft 365 kts 99°
2026-04-25 22:26 -34.15233 -59.99647 18424 ft 367 kts 99°
2026-04-25 22:26 -34.15621 -59.96611 18083 ft 365 kts 99°
2026-04-25 22:26 -34.16006 -59.93589 17727 ft 363 kts 99°
2026-04-25 22:27 -34.16388 -59.90586 17406 ft 360 kts 99°
2026-04-25 22:27 -34.16766 -59.87606 17066 ft 357 kts 99°
2026-04-25 22:27 -34.17139 -59.84659 16751 ft 354 kts 99°
2026-04-25 22:27 -34.17509 -59.81732 16436 ft 350 kts 99°
2026-04-25 22:28 -34.17874 -59.78836 16131 ft 347 kts 99°
2026-04-25 22:28 -34.18235 -59.75968 15828 ft 344 kts 99°
2026-04-25 22:28 -34.18594 -59.73112 15525 ft 342 kts 99°
2026-04-25 22:28 -34.18949 -59.70285 15239 ft 339 kts 99°
2026-04-25 22:29 -34.19301 -59.67472 14929 ft 337 kts 99°
2026-04-25 22:29 -34.19650 -59.64681 14627 ft 335 kts 99°
2026-04-25 22:29 -34.19992 -59.61934 14325 ft 334 kts 99°
2026-04-25 22:30 -34.20676 -59.56427 13729 ft 329 kts 99°
2026-04-25 22:30 -34.21330 -59.51158 13111 ft 324 kts 99°
2026-04-25 22:30 -34.21549 -59.49386 12917 ft 322 kts 99°
2026-04-25 22:31 -34.21989 -59.45822 12528 ft 318 kts 99°
2026-04-25 22:31 -34.22319 -59.43196 12250 ft 315 kts 100°
2026-04-25 22:31 -34.22701 -59.40586 11997 ft 315 kts 101°
2026-04-25 22:31 -34.23107 -59.37981 11749 ft 316 kts 101°
2026-04-25 22:32 -34.23517 -59.35374 11499 ft 316 kts 101°
2026-04-25 22:32 -34.23923 -59.32776 11250 ft 314 kts 101°
2026-04-25 22:32 -34.24323 -59.30191 11000 ft 312 kts 101°
2026-04-25 22:32 -34.24717 -59.27633 10807 ft 306 kts 101°
2026-04-25 22:33 -34.25102 -59.25124 10546 ft 303 kts 101°
2026-04-25 22:33 -34.25478 -59.22660 10272 ft 300 kts 101°
2026-04-25 22:33 -34.25854 -59.20187 10051 ft 296 kts 101°
2026-04-25 22:33 -34.26222 -59.17768 9867 ft 293 kts 101°
2026-04-25 22:34 -34.26591 -59.15333 9564 ft 296 kts 101°
2026-04-25 22:34 -34.26963 -59.12876 9258 ft 297 kts 101°
2026-04-25 22:34 -34.27333 -59.10427 8957 ft 295 kts 101°
2026-04-25 22:34 -34.27700 -59.07992 8664 ft 293 kts 101°
2026-04-25 22:35 -34.28064 -59.05577 8374 ft 291 kts 101°
2026-04-25 22:35 -34.28424 -59.03187 8106 ft 288 kts 101°
2026-04-25 22:35 -34.28781 -59.00808 7837 ft 285 kts 101°
2026-04-25 22:35 -34.29134 -58.98456 7557 ft 283 kts 101°
2026-04-25 22:36 -34.29484 -58.96117 7288 ft 281 kts 101°
2026-04-25 22:36 -34.29826 -58.93829 7022 ft 279 kts 101°
2026-04-25 22:36 -34.30170 -58.91526 6754 ft 277 kts 101°
2026-04-25 22:36 -34.30512 -58.89235 6488 ft 276 kts 101°
2026-04-25 22:37 -34.30851 -58.86957 6211 ft 274 kts 101°
2026-04-25 22:37 -34.31189 -58.84692 5935 ft 273 kts 101°
2026-04-25 22:37 -34.31524 -58.82442 5659 ft 271 kts 101°
2026-04-25 22:37 -34.31855 -58.80208 5389 ft 269 kts 101°
2026-04-25 22:38 -34.32183 -58.77995 5159 ft 265 kts 101°
2026-04-25 22:38 -34.32735 -58.75963 5028 ft 247 kts 125°
2026-04-25 22:38 -34.33842 -58.74444 4786 ft 235 kts 137°
2026-04-25 22:39 -34.35743 -58.72101 4445 ft 211 kts 137°
2026-04-25 22:39 -34.36739 -58.70870 4267 ft 198 kts 137°
2026-04-25 22:39 -34.36910 -58.70658 4245 ft 196 kts 137°
2026-04-25 22:39 -34.37330 -58.70140 4160 ft 192 kts 137°
2026-04-25 22:40 -34.38249 -58.69002 4053 ft 187 kts 137°
2026-04-25 22:40 -34.38282 -58.68961 4050 ft 186 kts 137°
2026-04-25 22:40 -34.38451 -58.68752 4019 ft 185 kts 137°
2026-04-25 22:40 -34.39338 -58.67652 3883 ft 179 kts 137°
2026-04-25 22:41 -34.40210 -58.66570 3772 ft 179 kts 136°
2026-04-25 22:41 -34.41064 -58.65509 3676 ft 172 kts 136°
2026-04-25 22:41 -34.41887 -58.64484 3488 ft 167 kts 136°
2026-04-25 22:41 -34.42681 -58.63495 3300 ft 159 kts 136°
2026-04-25 22:42 -34.43453 -58.62534 3205 ft 159 kts 136°
2026-04-25 22:42 -34.44230 -58.61567 3130 ft 161 kts 136°
2026-04-25 22:42 -34.45012 -58.60592 3057 ft 161 kts 136°
2026-04-25 22:42 -34.45795 -58.59611 2961 ft 163 kts 135°
2026-04-25 22:43 -34.46496 -58.58538 2780 ft 161 kts 128°
2026-04-25 22:43 -34.47132 -58.57430 2625 ft 160 kts 126°
2026-04-25 22:43 -34.47749 -58.56324 2464 ft 160 kts 126°
2026-04-25 22:43 -34.48378 -58.55190 2284 ft 160 kts 126°
2026-04-25 22:44 -34.48978 -58.54107 2179 ft 157 kts 126°
2026-04-25 22:44 -34.49558 -58.53061 2029 ft 162 kts 127°
2026-04-25 22:44 -34.50183 -58.51932 1825 ft 160 kts 126°
2026-04-25 22:44 -34.50797 -58.50822 1606 ft 157 kts 127°
2026-04-25 22:45 -34.51369 -58.49793 1447 ft 155 kts 127°
2026-04-25 22:45 -34.51967 -58.48712 1242 ft 155 kts 127°
2026-04-25 22:45 -34.52567 -58.47631 1043 ft 155 kts 127°
2026-04-25 22:45 -34.53175 -58.46535 848 ft 157 kts 125°
2026-04-25 22:46 -34.53783 -58.45436 625 ft 157 kts 127°
2026-04-25 22:46 -34.54385 -58.44352 415 ft 153 kts 127°
2026-04-25 22:46 -34.54978 -58.43283 222 ft 155 kts 124°
2026-04-25 22:46 -34.55568 -58.42206 44 ft 145 kts 126°
2026-04-25 22:47 -34.56059 -58.41332 26 ft 97 kts 123°
2026-04-25 22:47 -34.56402 -58.40714 27 ft 10 kts 118°
2026-04-25 22:47 -34.56372 -58.40653 27 ft 10 kts
2026-04-25 22:48 -34.56321 -58.40690 27 ft 7 kts 319°
2026-04-25 22:48 -34.56283 -58.40731 27 ft 7 kts 318°
2026-04-25 22:48 -34.56247 -58.40772 28 ft 7 kts 316°
2026-04-25 22:48 -34.56213 -58.40813 28 ft 7 kts 313°
2026-04-25 22:49 -34.56182 -58.40859 28 ft 8 kts 300°
2026-04-25 22:49 -34.56156 -58.40918 28 ft 9 kts 303°
2026-04-25 22:49 -34.56121 -58.40980 28 ft 10 kts 305°
2026-04-25 22:49 -34.56080 -58.41044 28 ft 11 kts 308°
2026-04-25 22:50 -34.56032 -58.41121 28 ft 12 kts 307°
2026-04-25 22:50 -34.55988 -58.41192 28 ft 10 kts 306°
2026-04-25 22:50 -34.55958 -58.41240 28 ft 5 kts 307°
2026-04-25 22:50 -34.55932 -58.41281 28 ft 7 kts 307°
2026-04-25 22:51 -34.55890 -58.41298 28 ft 7 kts 29°
2026-04-25 22:51 -34.55841 -58.41282 28 ft 8 kts 332°
2026-04-25 22:51 -34.55808 -58.41332 28 ft 4 kts 304°
2026-04-25 22:51 -34.55781 -58.41343 28 ft 5 kts 24°
2026-04-25 22:52 -34.55762 -58.41326 28 ft 0 kts 36°
2026-04-25 22:52 -34.55760 -58.41325 28 ft 0 kts 36°